+ View the NASA Portal
+ Center for Near-Earth Object Studies
IMPORTANT:
The SSD Announcement email list is now available. Major changes are coming in the near future, including possible hostname and/or URL changes. To be notified of such changes, subscribe to this email list.
Please visit
this page
for more details.
Don't show this message again
JPL Small-Body Database Browser
Search:
[
help
]
226091 (2002 OX5)
Classification:
Main-belt Asteroid
SPK-ID:
2226091
[
Ephemeris
|
Orbit Diagram
|
Orbital Elements
|
Mission Design
|
Physical Parameters
|
Discovery Circumstances
|
Close-Approach Data
]
[ show orbit diagram ]
Orbital Elements at Epoch 2458600.5 (2019-Apr-27.0) TDB
Reference:
JPL 15
(heliocentric ecliptic J2000)
Element
Value
Uncertainty (1-sigma)
Units
e
.06958794924914136
4.9769e-08
a
3.066390389505614
3.6048e-08
au
q
2.853006570702643
1.5458e-07
au
i
11.53867169919543
5.9403e-06
deg
node
263.4356225392085
2.742e-05
deg
peri
311.8422881197703
5.0016e-05
deg
M
129.0783871442494
4.2842e-05
deg
t
p
2457897.280955158541
(2017-May-23.78095516)
0.00023133
TDB
period
1961.279976794348
5.37
3.4585e-05
9.469e-08
d
yr
n
.1835535998223002
3.2368e-09
deg/d
Q
3.279774208308586
3.8557e-08
au
Orbit Determination Parameters
# obs. used (total)
317
data-arc span
6319 days (17.30 yr)
first obs. used
2002-07-18
last obs. used
2019-11-05
planetary ephem.
DE431
SB-pert. ephem.
SB431-N16
condition code
0
norm. resid. RMS
.56299
source
ORB
producer
Otto Matic
solution date
2019-Dec-04 17:25:54
Additional Information
Earth MOID
= 1.85839 au
Jupiter MOID
= 1.80618 au
T_jup
= 3.198
[ show covariance matrix ]
[
Ephemeris
|
Orbit Diagram
|
Orbital Elements
|
Mission Design
|
Physical Parameters
|
Discovery Circumstances
|
Close-Approach Data
]
Physical Parameter Table
Parameter
Symbol
Value
Units
Sigma
Reference
Notes
absolute magnitude
H
14.9
n/a
MPO450048
226091 (2002 OX5)
Discovered 2002-Jul-20 by NEAT at Palomar
Reference:
20091202/Numbers.arc
Last Updated:
2009-12-04
[ show close-approach data ]
Alternate Designations
2002 OX5
= 2003 SE141
[
Ephemeris
|
Orbit Diagram
|
Orbital Elements
|
Mission Design
|
Physical Parameters
|
Discovery Circumstances
|
Close-Approach Data
]
2019-Dec-15 19:20 UT
(server date/time)
Site Manager:
Ryan S. Park
Webmaster
:
Alan B. Chamberlin